User: anonymous   Login
Location: Unspecified
(0.0000°N, 0.0000°E)
Time: 21:47:51
(UTC+00:00)
Language:

COSMOS 2488 - Orbit

View from above orbital plane
View from above orbital plane
View from above satellite
View from above satellite

Ground track
Ground track

The orbit data is extracted from the following two-line orbital elements,

1 39483U 13076A   17117.77900338 +.00000010 +00000-0 +00000-0 0  9999
2 39483 082.4814 088.5791 0019714 165.9169 194.2466 12.42863796151493
Epoch (UTC): 27 April 2017 18:41:45
Eccentricity: 0.0019714
inclination: 82.4814°
perigee height: 1479 km
apogee height: 1510 km
right ascension of ascending node: 88.5791°
argument of perigee: 165.9169°
revolutions per day: 12.42863796
mean anomaly at epoch: 194.2466°
orbit number at epoch: 15149

The dashed part of the orbit path shows where the satellite is in the earth's shadow,  

DLR